Temp
3 3 3 3 4 3 3 3 3 3 3 3 3 3 3 3 3 3 4 3 3 4 3 4 4 4 4 5 5 5 5 5 5 5 5 4 4 4 4 4 4 4 4 4 4 4 4 4 5 6 6 6 6 6 6 6 6 6 6 5 5 6 5 5 5 5 4 4 4 4 4 4 4 4 4 4 5 5 5 6 6 6 7 7 7 7
3 3 3 4 4 4 4 3 3 3 3 3 3 3 3 3 3 3 3 3 3 4 4 4 4 4 4 4 4 4 4 5 5 5 5 5 5 4 4 4 4 4 4 4 4 4 5 4 4 5 6 6 6 6 6 6 6 6 6 5 5 5 5 5 5 5 4 4 4 4 4 4 4 4 4 4 4 5 5 5 6 6 7 7 7 7
4 4 4 4 4 3 3 3 3 3 3 3 3 3 3 3 3 3 3 3 3 4 4 4 4 4 4 4 4 4 4 4 5 5 5 5 4 4 4 5 4 4 4 4 4 5 5 4 5 6 6 6 6 6 6 6 6 6 6 6 6 5 5 5 5 5 4 4 4 4 4 4 4 4 4 4 4 4 5 5 6 6 6 7 7 7
4 4 4 4 4 3 3 3 3 3 3 3 3 3 3 3 3 3 4 3 3 4 4 4 4 4 4 4 4 4 4 4 4 5 5 4 4 4 5 5 5 5 5 4 4 5 5 5 5 6 6 6 6 7 7 6 6 6 6 6 6 6 5 5 5 4 4 4 4 4 4 4 4 3 3 4 4 5 5 6 6 6 6 7 7 7
4 4 4 4 4 4 4 4 4 4 4 4 3 3 4 3 3 3 3 3 3 3 4 4 3 3 3 4 4 4 4 4 4 5 5 4 4 4 4 5 4 4 4 4 5 5 5 5 6 6 6 6 6 7 6 6 6 6 6 6 6 6 5 5 5 5 4 4 4 4 4 4 3 3 3 4 4 5 5 6 6 6 6 7 7 7
5 4 4 4 4 4 4 4 4 4 4 4 4 4 4 4 3 4 4 3 3 3 4 4 3 3 3 4 4 4 4 3 4 5 5 4 4 4 4 4 4 4 4 5 5 5 6 6 6 6 6 6 6 6 6 6 6 5 6 6 6 6 5 5 5 4 4 4 4 4 4 3 3 3 3 4 4 5 6 6 6 6 6 6 6 6
5 5 5 4 4 4 4 5 5 4 4 4 4 4 4 4 4 4 4 4 3 3 4 4 3 3 3 4 4 4 4 4 4 4 4 4 4 4 4 4 4 4 4 5 4 5 5 6 6 6 6 6 6 6 6 6 6 6 6 6 6 6 5 5 5 4 4 4 4 4 4 3 3 3 3 4 4 5 6 6 6 6 6 6 6 6
5 5 5 5 4 4 4 5 5 4 4 4 4 4 4 4 4 4 4 4 4 4 4 4 4 4 3 4 4 4 4 4 4 4 4 4 4 4 4 4 4 4 4 5 5 5 6 6 6 6 6 6 6 6 6 6 6 6 6 5 5 5 5 5 4 4 4 4 4 4 4 3 3 3 3 4 5 5 6 6 6 6 6 6 6 6
5 5 5 5 4 4 4 4 4 4 4 4 4 4 4 4 4 4 4 4 4 4 4 4 4 4 4 4 4 4 4 4 4 4 4 4 4 4 4 4 5 5 5 5 5 5 6 6 6 6 6 6 6 6 6 6 6 6 5 5 5 5 5 5 4 4 4 4 4 4 3 3 3 3 3 3 4 5 5 6 6 6 6 6 6 6
5 5 5 5 5 5 4 4 4 4 4 4 4 4 4 4 4 4 4 4 4 4 3 3 4 4 4 4 4 4 4 5 5 5 4 4 5 5 5 5 5 5 5 5 5 5 6 6 6 6 6 6 6 6 6 6 6 6 5 5 5 5 5 4 4 4 4 4 4 4 3 3 3 3 3 3 4 4 5 5 6 6 6 6 6 6
5 5 5 5 5 5 4 4 4 4 4 4 4 4 4 4 4 4 4 5 4 4 3 3 3 4 4 3 4 4 4 5 5 5 5 5 5 5 5 5 5 5 5 6 6 6 6 6 6 6 6 6 6 6 5 5 5 6 6 5 5 5 5 4 4 4 4 4 4 3 3 3 3 3 3 3 3 3 4 4 5 6 6 6 6 5
6 5 5 5 5 5 5 4 4 4 4 4 4 4 4 4 4 4 5 5 4 3 3 3 3 4 4 3 4 4 5 5 5 5 5 5 5 5 5 5 5 5 6 6 6 6 6 6 6 6 6 6 6 5 5 5 5 6 6 5 5 5 5 4 4 4 4 4 4 3 3 3 3 3 3 3 3 3 3 3 4 5 5 5 5 5
6 6 5 5 5 5 5 4 4 5 4 4 4 4 4 4 4 4 4 4 3 3 3 3 4 4 3 3 4 4 5 5 5 5 5 5 5 5 5 5 5 5 6 6 6 6 6 6 6 6 6 6 5 5 5 5 6 6 5 5 5 5 4 4 4 4 4 4 4 3 3 3 3 3 3 3 3 3 3 3 4 4 5 5 5 5
6 6 5 5 5 5 5 5 5 4 4 5 4 4 4 4 4 4 3 2 2 3 3 4 4 4 4 4 4 5 5 5 5 6 6 6 6 6 6 6 5 5 5 6 6 6 6 6 6 6 6 5 5 5 5 6 6 6 5 5 5 4 4 4 4 4 4 4 4 3 3 3 3 3 3 3 3 3 3 3 3 4 4 4 4 4
6 6 6 6 5 5 5 5 4 4 5 5 4 4 4 4 4 3 3 2 2 2 3 4 4 4 4 4 4 5 5 5 5 6 6 6 6 6 6 6 6 5 6 6 6 6 6 6 6 5 5 5 5 5 6 6 6 5 5 5 4 4 5 5 5 4 4 4 4 3 4 3 3 4 4 4 3 3 3 3 3 3 3 4 4 4
6 6 6 6 6 5 5 5 5 5 5 5 4 4 4 4 3 3 2 2 3 3 3 3 3 4 4 4 4 4 5 5 6 6 6 6 6 6 6 6 6 6 6 6 6 6 6 6 5 5 5 5 5 6 6 5 5 5 4 5 4 5 5 5 4 4 4 4 4 4 4 4 4 4 4 4 4 3 3 3 3 3 3 3 3 3
6 7 6 6 6 6 5 5 5 5 5 5 4 4 4 4 4 4 3 3 3 3 3 3 3 4 4 4 4 4 5 5 6 6 6 6 6 6 6 6 6 6 6 6 6 6 6 6 6 5 5 5 5 5 5 5 5 5 5 5 5 5 4 4 4 4 4 4 4 4 4 4 4 4 4 4 4 3 3 3 3 3 3 3 3 3
6 7 7 6 6 6 5 5 5 5 5 5 5 5 4 4 4 4 4 3 3 3 3 3 3 4 4 4 4 4 5 6 6 6 6 6 6 6 6 6 6 6 6 6 6 6 6 6 6 6 5 5 5 5 5 5 5 5 5 5 5 5 4 4 4 4 4 4 4 4 4 4 4 4 4 4 4 4 3 3 3 3 3 3 3 3
6 6 7 6 6 6 6 5 6 6 5 5 5 5 5 5 4 5 4 4 4 3 3 4 3 3 4 4 4 4 4 5 5 5 5 6 6 6 6 6 6 5 5 6 6 6 6 6 5 5 5 5 5 5 5 5 5 5 5 5 4 4 4 4 4 4 4 4 4 4 4 4 4 3 3 4 4 4 4 4 3 3 3 3 3 3
6 6 6 7 6 6 6 6 6 6 6 6 6 5 5 5 5 5 4 4 4 3 3 4 4 3 4 4 4 4 4 5 5 5 5 5 6 6 6 5 5 5 5 6 5 5 6 6 5 5 5 5 5 5 5 5 5 5 5 4 4 4 4 4 4 4 4 4 4 4 4 4 4 4 4 4 3 4 4 4 3 3 3 3 3 3
6 6 6 7 6 6 6 6 6 6 6 6 6 5 5 5 5 5 5 4 5 4 3 3 4 3 4 4 4 4 4 4 5 5 5 5 5 6 5 5 5 5 5 5 5 5 5 6 6 5 5 5 5 5 5 5 4 4 4 4 4 4 4 4 4 4 4 4 4 4 4 4 4 4 4 4 4 4 3 3 3 3 3 3 3 3
6 6 6 7 7 7 7 7 7 7 6 6 6 6 6 6 6 5 5 4 5 5 4 3 4 4 4 4 4 4 4 4 4 5 5 5 5 5 5 5 5 5 5 5 5 5 5 5 6 6 5 5 5 5 4 4 4 4 4 4 4 4 4 4 4 4 4 4 4 4 4 4 4 4 4 3 3 3 3 3 3 3 3 3 3 3
6 7 7 7 7 7 7 7 7 7 7 6 6 6 6 6 6 6 5 5 5 5 4 4 4 4 4 4 4 4 4 4 4 5 5 5 5 5 5 5 5 5 5 5 5 5 5 5 5 5 5 5 5 4 4 4 4 4 4 4 4 4 4 4 4 4 4 4 4 4 4 4 4 4 4 3 3 3 3 3 3 3 3 3 3 3
7 7 7 7 7 7 7 7 7 7 7 6 6 7 7 6 6 6 6 6 5 4 4 4 4 4 4 4 4 4 4 4 4 4 5 5 5 5 5 5 5 5 5 5 5 5 5 5 5 5 5 5 4 4 4 4 4 4 5 5 4 4 4 4 4 4 4 4 4 4 4 4 4 4 4 4 4 3 3 3 3 3 3 3 3 3
7 6 7 7 7 7 7 7 7 7 7 6 6 7 7 7 7 6 6 6 5 4 5 4 4 4 4 4 4 4 4 4 4 4 5 5 5 5 5 5 5 4 4 4 4 4 5 5 4 4 4 4 4 4 4 4 4 4 4 4 4 5 4 4 4 4 4 4 4 4 4 4 4 4 4 4 3 3 3 3 3 4 4 3 4 4
6 6 6 6 6 6 6 6 6 7 7 7 7 7 7 7 7 7 6 6 6 5 5 5 5 4 4 4 4 4 4 4 4 4 4 4 5 5 5 5 4 4 4 4 4 4 4 4 4 4 4 4 4 4 4 4 4 4 4 4 4 4 4 4 4 4 4 4 4 4 4 4 4 4 4 4 4 4 4 4 4 4 4 4 4 4
6 6 6 6 6 6 6 6 6 6 6 7 7 7 7 7 7 7 7 7 7 6 5 6 6 5 4 4 4 4 4 4 4 4 4 4 4 4 4 4 4 4 4 4 4 4 4 4 4 4 4 4 4 4 4 4 4 4 4 4 4 4 4 4 4 4 4 4 4 4 4 4 4 4 4 4 4 3 3 3 3 4 4 4 4 4
6 6 6 6 6 6 6 6 6 6 6 7 7 7 7 7 7 7 7 7 7 7 6 6 6 6 5 4 4 4 4 5 5 5 4 4 4 4 4 5 5 5 5 4 4 4 4 4 4 4 4 4 4 4 4 4 4 4 4 4 4 4 4 4 4 4 4 4 4 4 4 4 4 4 4 4 4 4 3 3 3 3 3 4 4 3
6 6 6 6 6 6 6 6 6 6 6 6 7 7 7 7 7 7 7 7 7 7 7 6 6 6 6 5 5 5 5 5 5 4 4 5 5 4 5 5 5 5 5 4 4 4 4 4 4 4 4 4 4 4 4 4 4 4 4 4 4 4 4 4 4 4 4 4 4 4 4 4 4 4 4 4 4 4 4 4 4 3 3 3 3 3
6 6 6 6 6 6 6 6 6 6 6 6 7 7 7 7 7 7 7 7 7 7 7 7 6 6 6 5 5 5 4 4 4 4 4 5 5 5 5 4 5 5 5 5 5 5 5 4 4 4 4 4 4 4 4 4 4 4 4 4 4 4 4 4 4 4 4 4 4 4 4 4 4 4 4 4 4 4 4 4 3 3 3 3 3 3
6 6 6 6 6 6 6 6 6 5 6 6 6 7 7 7 7 7 7 7 7 7 7 7 6 6 5 5 5 5 4 4 4 4 4 4 5 5 5 4 5 5 5 4 5 5 5 5 5 4 4 4 4 4 4 4 4 4 4 4 4 4 4 4 4 4 4 4 4 4 4 4 4 4 4 4 4 4 3 3 3 3 3 3 3 3
6 5 5 6 6 6 6 6 5 5 5 6 6 7 7 7 7 7 6 6 7 7 7 6 6 6 6 5 5 5 5 5 4 4 4 4 4 4 4 5 5 5 5 5 5 5 5 5 4 4 4 4 4 4 4 4 4 5 5 5 5 4 4 4 4 4 4 4 4 4 4 4 4 4 4 4 4 3 3 3 3 3 3 3 3 3
6 5 5 5 5 6 6 6 5 5 5 6 6 6 6 6 6 6 6 6 6 7 7 7 7 7 6 6 5 5 5 5 4 4 4 4 4 4 4 4 4 5 5 5 5 5 4 4 4 4 4 4 4 4 4 4 4 4 5 5 5 5 5 5 4 4 4 4 4 4 4 4 4 4 4 4 4 4 4 4 4 3 3 3 3 3
5 5 5 5 5 5 6 6 5 5 5 5 5 6 6 6 6 6 6 6 6 6 6 7 7 6 6 6 6 6 5 5 4 4 3 3 4 4 4 4 4 4 4 5 5 4 4 4 4 4 4 4 4 4 4 4 4 4 4 4 4 4 4 4 4 4 4 4 4 4 4 4 4 4 4 4 4 4 4 4 4 4 4 4 4 4
5 5 5 5 5 5 5 5 5 5 5 5 5 5 6 6 6 6 6 6 6 6 6 6 6 6 6 6 6 5 5 4 4 3 3 3 3 3 4 4 4 4 4 4 4 4 4 4 4 4 4 4 4 4 4 4 4 4 4 4 4 4 4 4 4 4 4 4 4 4 4 4 4 4 4 4 4 4 4 4 4 4 4 4 4 4
5 5 5 5 5 5 5 5 5 5 5 5 5 5 6 6 6 6 6 6 6 6 5 6 6 6 6 6 5 5 4 4 4 3 3 3 4 4 4 4 4 4 4 4 4 4 4 4 4 4 4 4 4 4 4 4 4 4 4 4 4 4 4 4 4 4 4 4 4 4 4 4 4 4 4 4 4 4 4 4 4 4 4 4 4 3
5 5 5 5 5 5 5 5 5 5 5 5 6 5 5 6 6 6 6 6 6 6 6 6 6 6 6 6 5 5 4 4 4 3 3 3 4 4 4 4 4 4 4 4 4 4 4 4 4 4 4 4 4 4 4 4 4 4 4 4 4 4 4 4 4 4 4 4 4 4 4 4 4 3 3 3 3 3 3 3 3 3 3 3 3 3
4 4 4 4 4 4 4 4 4 5 5 5 5 5 5 5 5 5 5 6 6 6 6 6 6 6 6 6 5 5 4 4 4 3 3 4 4 4 4 4 4 4 4 4 4 4 4 4 4 4 4 4 4 4 4 4 4 4 4 4 4 4 4 4 4 4 4 4 3 3 3 3 3 3 3 3 3 3 3 3 3 3 3 3 3 3
4 4 4 4 4 4 4 4 3 4 5 5 5 5 5 5 5 5 5 5 6 6 5 5 5 5 6 6 6 5 5 4 4 4 4 4 3 3 4 4 4 4 3 3 3 3 4 4 4 4 3 3 3 4 4 4 4 4 4 4 4 4 3 3 3 3 3 3 3 3 3 3 3 3 3 3 3 3 3 3 3 3 3 3 3 3
4 4 4 4 4 4 4 4 4 4 4 4 5 5 4 4 4 4 4 5 5 5 5 5 5 5 5 5 5 5 5 5 5 4 4 3 3 3 3 3 3 3 3 3 3 3 3 3 3 3 3 3 3 4 4 4 4 3 3 3 3 3 3 3 3 3 3 3 3 3 3 3 3 3 3 3 3 3 3 3 3 3 3 3 3 2
4 4 4 4 4 4 4 4 4 4 4 4 4 5 4 4 4 4 4 4 5 5 5 5 5 5 5 5 5 5 5 4 4 4 3 3 2 2 2 2 3 3 3 3 3 3 3 3 3 3 3 3 3 3 3 3 3 3 3 3 3 3 3 3 3 3 3 3 3 3 3 3 3 3 3 3 3 3 3 3 3 2 2 2 2 2
3 3 4 4 3 3 3 3 3 4 4 4 4 4 4 4 4 4 4 4 4 4 4 4 4 4 4 4 4 4 4 3 3 3 3 2 2 2 2 2 2 3 3 3 3 3 3 3 3 3 3 3 3 3 3 3 3 3 3 3 3 3 3 3 3 3 3 3 3 3 3 3 3 3 3 3 3 2 2 2 2 2 2 2 2 2
2 3 3 3 3 3 3 3 3 3 3 3 4 4 4 4 4 4 4 4 4 4 4 4 4 4 4 4 4 3 3 3 2 2 2 2 2 2 2 2 2 2 2 2 3 3 3 3 3 3 3 3 3 3 3 3 3 3 3 3 3 3 3 3 3 3 3 3 3 3 3 3 3 3 2 2 2 2 2 2 2 2 2 1 1 1
2 2 2 2 2 2 2 2 2 3 3 3 3 3 3 3 3 3 3 3 4 4 4 4 3 3 3 3 3 3 2 2 2 1 1 1 1 1 2 2 2 2 2 2 2 3 3 3 3 3 2 2 2 2 2 2 3 3 3 3 3 3 3 3 3 3 3 3 3 3 3 3 2 2 2 2 2 2 2 2 1 1 1 1 1 1
2 2 2 2 2 2 2 2 2 3 3 3 3 3 3 3 3 3 3 3 3 3 3 3 3 3 2 3 3 2 1 1 1 1 1 1 1 1 1 1 2 2 2 2 2 2 2 2 2 2 2 2 2 2 2 2 2 2 2 2 2 2 2 2 2 2 2 2 2 2 2 2 2 2 2 1 1 1 1 1 1 1 1 1 0 0
1 1 1 2 2 2 2 2 2 2 3 3 3 3 3 2 2 2 3 3 3 3 3 3 2 2 2 2 2 1 1 1 1 1 1 1 1 1 1 1 2 2 2 2 2 2 2 2 2 2 2 2 2 2 2 2 2 2 2 2 2 2 2 2 2 2 2 2 2 2 1 1 1 1 1 1 1 1 1 0 0 0 0 -0 -0 -0
1 1 1 1 1 1 2 2 2 2 2 2 2 2 2 2 2 2 2 2 3 3 2 2 2 2 2 1 1 1 1 1 1 1 1 1 1 1 1 1 2 2 2 2 2 2 2 2 2 2 2 2 2 2 2 2 2 2 2 2 2 2 2 2 2 2 2 2 1 1 1 1 1 1 0 0 0 0 -0 -0 -0 -0 -0 -0 -1 -1
1 1 1 1 1 1 1 1 2 2 2 2 2 2 2 2 2 2 2 2 2 2 1 1 1 1 1 1 1 1 1 1 1 1 1 1 1 1 1 1 1 2 2 2 2 1 1 2 2 2 2 2 2 2 2 2 2 2 2 2 2 2 2 1 1 1 1 1 1 0 0 0 0 -0 -0 -0 -0 -1 -1 -1 -1 -1 -1 -1 -1 -1
1 1 1 1 1 1 1 1 1 1 1 1 1 1 1 1 1 1 1 1 1 1 1 1 1 1 1 1 1 1 1 1 1 0 0 0 1 1 1 1 1 1 1 1 1 1 1 1 1 2 2 2 2 2 2 2 1 1 1 1 1 1 1 1 1 0 0 0 -0 -0 -0 -0 -0 -1 -1 -1 -1 -1 -1 -1 -2 -2 -2 -2 -2 -2
1 1 1 1 1 1 1 1 1 1 1 1 1 1 1 0 0 1 1 0 0 0 1 1 1 1 1 1 1 1 1 1 1 0 0 1 1 1 1 1 1 1 1 1 1 1 1 1 1 1 1 1 1 1 1 1 1 1 1 1 1 1 1 1 0 0 0 -0 -0 -1 -1 -1 -1 -1 -1 -2 -2 -2 -2 -2 -3 -3 -3 -3 -3 -3
1 1 1 1 1 1 1 1 1 1 1 1 0 0 -0 -0 -0 -0 -0 -0 -0 -0 -0 0 1 1 1 1 0 0 1 1 1 1 1 1 1 1 1 1 1 1 1 1 1 1 1 1 1 1 1 1 1 1 1 1 1 1 1 0 0 -0 -0 -1 -1 -1 -1 -1 -1 -1 -1 -1 -1 -2 -2 -2 -2 -2 -2 -3 -3 -3 -3 -3 -4 -4
Height
3078 3078 3077 3076 3076 3075 3075 3075 3075 3075 3075 3075 3075 3075 3075 3074 3072 3070 3069 3069 3069 3069 3070 3071 3070 3069 3069 3070 3068 3067 3067 3069 3071 3073 3075 3076 3077 3077 3078 3078 3080 3082 3083 3085 3088 3092 3095 3095 3098 3102 3105 3108 3110 3113 3115 3117 3118 3119 3121 3123 3125 3126 3127 3129 3130 3130 3131 3132 3132 3133 3134 3134 3134 3134 3133 3133 3133 3132 3132 3132 3131 3131 3131 3131 3131 3132
3078 3077 3076 3075 3075 3075 3075 3075 3075 3075 3075 3075 3075 3075 3075 3074 3072 3070 3069 3070 3069 3069 3071 3071 3071 3070 3070 3071 3070 3069 3069 3070 3072 3074 3075 3077 3078 3078 3078 3078 3080 3083 3085 3087 3089 3093 3095 3096 3098 3102 3105 3108 3110 3112 3115 3116 3118 3120 3121 3123 3124 3126 3127 3128 3129 3130 3131 3131 3131 3132 3133 3133 3133 3133 3133 3133 3132 3132 3131 3131 3130 3130 3130 3130 3131 3131
3078 3077 3076 3075 3075 3074 3074 3074 3074 3075 3075 3075 3075 3075 3075 3074 3073 3071 3069 3069 3069 3069 3070 3071 3070 3070 3071 3071 3071 3071 3071 3072 3073 3074 3075 3077 3077 3077 3078 3079 3081 3083 3086 3088 3090 3093 3096 3098 3100 3102 3105 3108 3110 3112 3114 3116 3118 3119 3121 3122 3124 3125 3127 3128 3128 3129 3130 3130 3131 3132 3132 3133 3132 3132 3132 3132 3131 3131 3130 3130 3129 3129 3129 3129 3130 3131
3078 3077 3076 3075 3074 3074 3073 3073 3073 3073 3074 3075 3075 3075 3075 3074 3074 3071 3070 3069 3069 3069 3070 3071 3070 3071 3071 3072 3073 3073 3073 3073 3074 3075 3076 3077 3077 3078 3079 3081 3083 3084 3087 3090 3092 3095 3097 3099 3101 3103 3105 3108 3110 3112 3113 3115 3117 3119 3121 3122 3124 3125 3126 3127 3128 3128 3129 3129 3130 3131 3132 3132 3132 3132 3132 3131 3130 3130 3129 3129 3128 3128 3128 3128 3129 3130
3079 3078 3077 3075 3074 3073 3073 3073 3072 3072 3073 3074 3075 3075 3074 3074 3073 3072 3071 3071 3070 3070 3070 3070 3071 3071 3072 3073 3073 3074 3075 3075 3075 3075 3076 3077 3077 3078 3080 3083 3085 3086 3089 3092 3094 3097 3098 3100 3102 3104 3106 3108 3110 3112 3113 3114 3116 3119 3121 3122 3123 3125 3126 3126 3127 3127 3128 3129 3130 3130 3131 3131 3131 3132 3131 3130 3130 3129 3128 3127 3127 3127 3127 3128 3128 3129
3079 3078 3077 3076 3074 3074 3073 3072 3072 3072 3071 3072 3073 3074 3073 3073 3072 3071 3071 3071 3071 3070 3070 3070 3070 3072 3073 3074 3074 3075 3076 3076 3076 3077 3077 3078 3078 3080 3082 3084 3086 3088 3092 3095 3096 3097 3099 3100 3102 3104 3106 3108 3110 3112 3113 3115 3116 3119 3120 3121 3122 3124 3125 3125 3126 3127 3127 3128 3129 3130 3130 3131 3131 3131 3131 3130 3129 3128 3127 3126 3126 3126 3126 3127 3128 3128
3079 3078 3077 3076 3075 3074 3074 3073 3072 3072 3071 3071 3072 3072 3072 3072 3071 3071 3071 3071 3071 3071 3071 3070 3071 3073 3074 3075 3076 3077 3077 3077 3078 3078 3079 3079 3080 3082 3084 3085 3087 3090 3092 3095 3095 3096 3098 3100 3102 3104 3106 3108 3110 3112 3113 3115 3116 3118 3120 3120 3122 3123 3124 3124 3125 3126 3127 3127 3128 3129 3129 3130 3130 3130 3130 3129 3128 3127 3126 3126 3125 3125 3126 3126 3127 3128
3079 3078 3077 3076 3076 3075 3074 3073 3073 3072 3072 3071 3071 3071 3071 3071 3070 3070 3070 3070 3070 3070 3071 3071 3072 3073 3075 3076 3077 3078 3079 3079 3079 3079 3080 3081 3082 3084 3085 3085 3087 3089 3091 3093 3094 3096 3098 3100 3102 3104 3106 3108 3110 3112 3113 3115 3116 3118 3119 3120 3121 3122 3123 3124 3124 3125 3126 3126 3127 3128 3129 3129 3130 3130 3130 3129 3128 3126 3125 3125 3125 3125 3125 3126 3127 3127
3080 3079 3078 3077 3076 3075 3074 3074 3073 3073 3073 3073 3072 3072 3071 3070 3070 3070 3070 3070 3071 3071 3072 3072 3073 3074 3075 3077 3078 3079 3080 3080 3080 3081 3082 3083 3084 3085 3086 3087 3089 3090 3092 3094 3095 3096 3098 3100 3102 3103 3105 3108 3110 3111 3113 3114 3116 3117 3119 3120 3121 3121 3122 3123 3124 3124 3125 3126 3127 3128 3128 3129 3129 3130 3129 3128 3127 3126 3125 3124 3124 3125 3125 3126 3127 3128
3080 3079 3078 3077 3076 3076 3075 3074 3074 3074 3073 3073 3073 3072 3071 3071 3071 3071 3071 3072 3072 3073 3074 3074 3074 3075 3077 3078 3079 3080 3081 3081 3081 3082 3083 3085 3086 3087 3088 3089 3090 3092 3093 3094 3094 3096 3098 3100 3102 3103 3105 3108 3110 3111 3112 3113 3115 3116 3118 3119 3120 3121 3122 3122 3123 3124 3125 3126 3127 3127 3128 3129 3129 3129 3129 3128 3127 3126 3125 3125 3125 3125 3125 3126 3127 3127
3081 3080 3078 3078 3077 3076 3075 3075 3075 3074 3074 3074 3073 3073 3072 3072 3072 3072 3073 3073 3073 3075 3076 3076 3076 3076 3078 3079 3079 3080 3081 3081 3082 3083 3085 3086 3086 3088 3089 3090 3091 3092 3093 3093 3094 3096 3098 3100 3102 3104 3105 3107 3109 3111 3112 3113 3114 3116 3117 3118 3119 3121 3122 3122 3123 3124 3125 3126 3127 3127 3128 3128 3129 3129 3129 3128 3127 3126 3126 3125 3126 3126 3126 3126 3126 3127
3081 3080 3078 3078 3077 3077 3076 3075 3075 3075 3075 3074 3074 3073 3073 3072 3072 3072 3072 3072 3074 3076 3076 3076 3076 3077 3079 3080 3079 3080 3081 3081 3083 3084 3085 3086 3087 3088 3089 3090 3091 3092 3093 3094 3095 3097 3099 3100 3102 3104 3106 3107 3109 3110 3112 3113 3114 3115 3117 3118 3119 3121 3122 3122 3123 3124 3125 3126 3127 3127 3127 3128 3128 3129 3128 3128 3127 3127 3126 3126 3127 3126 3126 3126 3126 3127
3081 3080 3079 3078 3077 3077 3076 3076 3076 3075 3075 3074 3074 3073 3073 3073 3073 3073 3074 3074 3076 3077 3076 3076 3076 3077 3078 3079 3079 3079 3080 3081 3083 3084 3085 3086 3086 3087 3088 3089 3091 3092 3093 3094 3096 3097 3099 3100 3102 3104 3106 3108 3109 3110 3111 3112 3113 3114 3116 3117 3119 3121 3121 3122 3123 3124 3125 3126 3127 3127 3127 3128 3128 3128 3128 3127 3127 3127 3127 3127 3128 3128 3127 3127 3127 3127
3082 3081 3080 3078 3078 3078 3077 3077 3076 3076 3075 3075 3074 3073 3073 3074 3075 3077 3078 3079 3079 3077 3075 3075 3075 3076 3078 3078 3078 3079 3079 3080 3082 3082 3083 3085 3086 3087 3088 3089 3091 3092 3093 3095 3096 3097 3099 3100 3102 3104 3106 3108 3108 3109 3110 3110 3112 3113 3115 3117 3118 3119 3121 3122 3123 3124 3125 3126 3127 3127 3127 3127 3128 3128 3128 3127 3127 3127 3128 3128 3128 3128 3128 3128 3127 3127
3083 3083 3082 3080 3079 3079 3078 3078 3077 3076 3076 3075 3074 3073 3073 3074 3075 3077 3079 3080 3080 3078 3076 3075 3076 3077 3078 3078 3078 3078 3079 3080 3080 3081 3083 3084 3086 3088 3089 3089 3091 3092 3093 3095 3096 3097 3099 3100 3102 3103 3105 3107 3107 3108 3109 3110 3111 3113 3116 3117 3117 3118 3120 3123 3124 3124 3125 3126 3126 3126 3127 3127 3127 3127 3127 3127 3127 3128 3128 3129 3129 3129 3128 3128 3127 3127
3084 3084 3083 3082 3081 3080 3079 3078 3078 3077 3076 3075 3074 3074 3073 3074 3074 3076 3078 3078 3078 3078 3078 3077 3078 3079 3078 3079 3078 3078 3078 3079 3079 3081 3083 3085 3086 3088 3088 3089 3090 3092 3094 3095 3096 3097 3099 3100 3101 3102 3104 3106 3106 3107 3109 3111 3112 3114 3116 3117 3117 3118 3120 3123 3124 3123 3124 3125 3124 3125 3126 3126 3127 3127 3126 3126 3127 3128 3128 3129 3129 3129 3128 3128 3128 3127
3085 3084 3083 3083 3082 3081 3080 3079 3078 3077 3076 3076 3075 3074 3074 3074 3075 3076 3077 3077 3077 3078 3080 3080 3080 3080 3079 3079 3079 3078 3078 3079 3080 3081 3083 3085 3087 3088 3088 3089 3091 3093 3094 3096 3097 3098 3099 3100 3101 3102 3104 3105 3105 3106 3109 3111 3113 3114 3116 3117 3117 3119 3120 3121 3122 3122 3123 3124 3124 3124 3125 3125 3125 3125 3125 3126 3126 3127 3128 3128 3129 3128 3128 3128 3127 3127
3086 3084 3083 3083 3082 3082 3081 3080 3079 3078 3077 3077 3076 3076 3076 3076 3076 3076 3077 3078 3078 3080 3081 3081 3081 3081 3080 3080 3080 3079 3079 3080 3081 3082 3083 3085 3087 3088 3089 3090 3091 3093 3094 3096 3097 3097 3098 3100 3101 3102 3104 3104 3105 3106 3108 3111 3113 3114 3115 3116 3117 3117 3118 3119 3120 3121 3122 3123 3124 3124 3124 3124 3125 3125 3125 3125 3125 3126 3127 3127 3127 3127 3127 3126 3126 3126
3086 3084 3083 3083 3083 3082 3082 3081 3080 3079 3078 3078 3077 3077 3077 3077 3077 3076 3077 3078 3079 3082 3083 3081 3080 3081 3081 3081 3081 3081 3081 3081 3082 3082 3083 3085 3086 3088 3090 3091 3091 3092 3094 3096 3096 3097 3099 3100 3101 3102 3103 3104 3105 3107 3109 3111 3113 3114 3115 3116 3115 3115 3116 3117 3118 3120 3121 3122 3122 3123 3123 3123 3124 3124 3124 3124 3124 3125 3126 3126 3126 3126 3125 3125 3124 3124
3086 3085 3084 3083 3083 3083 3082 3081 3080 3080 3079 3079 3078 3078 3078 3078 3078 3078 3078 3079 3080 3083 3084 3082 3081 3081 3081 3082 3082 3082 3082 3082 3082 3083 3084 3085 3086 3088 3090 3091 3091 3092 3094 3095 3096 3097 3099 3101 3102 3102 3103 3104 3106 3107 3109 3111 3113 3114 3114 3115 3114 3115 3116 3117 3118 3119 3120 3120 3120 3121 3122 3122 3123 3123 3123 3123 3123 3123 3124 3125 3125 3125 3124 3123 3123 3122
3087 3086 3084 3083 3083 3083 3082 3082 3081 3080 3080 3080 3079 3079 3079 3079 3079 3079 3079 3079 3079 3081 3083 3082 3083 3083 3082 3083 3083 3083 3083 3083 3083 3084 3084 3085 3086 3088 3089 3090 3091 3093 3094 3095 3096 3098 3100 3101 3102 3103 3104 3105 3106 3107 3109 3110 3112 3113 3113 3114 3114 3115 3116 3117 3118 3119 3119 3119 3118 3119 3120 3121 3121 3121 3121 3122 3121 3121 3122 3123 3124 3123 3122 3121 3121 3121
3087 3086 3085 3084 3083 3083 3083 3082 3081 3081 3080 3080 3080 3080 3080 3080 3080 3080 3080 3081 3080 3080 3081 3082 3083 3084 3084 3084 3084 3084 3084 3085 3085 3085 3085 3086 3087 3088 3089 3091 3092 3094 3095 3096 3097 3098 3099 3101 3102 3103 3104 3105 3106 3107 3109 3111 3112 3112 3113 3114 3114 3115 3115 3116 3117 3118 3118 3118 3118 3119 3119 3119 3119 3120 3120 3119 3119 3120 3121 3121 3122 3122 3120 3119 3118 3118
3087 3086 3085 3084 3084 3084 3083 3083 3082 3081 3081 3081 3081 3080 3080 3080 3080 3080 3081 3081 3081 3081 3081 3082 3083 3085 3085 3085 3085 3086 3086 3086 3086 3087 3087 3087 3088 3089 3090 3092 3093 3094 3095 3097 3098 3099 3100 3101 3102 3103 3104 3106 3107 3108 3110 3111 3112 3112 3113 3113 3114 3114 3115 3115 3116 3117 3117 3117 3117 3118 3118 3118 3117 3118 3118 3117 3118 3119 3120 3120 3120 3119 3118 3117 3117 3117
3087 3086 3085 3085 3084 3084 3083 3083 3082 3082 3081 3081 3081 3080 3080 3080 3080 3080 3080 3081 3081 3082 3082 3082 3084 3085 3086 3086 3086 3087 3087 3088 3088 3088 3088 3089 3089 3090 3092 3093 3094 3095 3096 3098 3099 3100 3101 3102 3103 3104 3105 3107 3108 3109 3110 3111 3112 3112 3112 3113 3114 3115 3115 3115 3115 3116 3116 3116 3116 3117 3117 3117 3117 3117 3117 3117 3118 3119 3119 3118 3118 3117 3116 3116 3116 3116
3087 3087 3086 3085 3085 3085 3084 3083 3083 3082 3081 3081 3080 3080 3079 3079 3080 3080 3080 3081 3082 3082 3082 3083 3084 3085 3086 3087 3088 3088 3089 3089 3089 3089 3090 3090 3091 3092 3093 3094 3095 3096 3097 3099 3100 3101 3102 3103 3104 3105 3106 3108 3109 3109 3110 3110 3111 3112 3112 3113 3113 3114 3114 3114 3115 3115 3115 3115 3116 3116 3116 3116 3116 3116 3116 3116 3117 3117 3117 3117 3116 3115 3115 3114 3114 3114
3088 3087 3086 3086 3086 3086 3086 3085 3084 3083 3082 3081 3080 3080 3079 3079 3079 3080 3080 3080 3081 3082 3082 3082 3083 3084 3086 3087 3088 3089 3090 3090 3090 3091 3091 3092 3093 3094 3095 3096 3097 3098 3099 3100 3101 3102 3103 3104 3105 3106 3107 3108 3108 3109 3109 3110 3110 3111 3112 3112 3113 3113 3114 3114 3114 3114 3114 3114 3114 3115 3115 3115 3115 3115 3115 3116 3116 3116 3115 3115 3114 3114 3114 3114 3113 3113
3088 3088 3087 3086 3086 3087 3086 3086 3085 3084 3083 3082 3081 3080 3079 3079 3079 3080 3080 3080 3081 3081 3082 3082 3082 3084 3085 3087 3088 3090 3091 3091 3092 3092 3093 3094 3095 3096 3097 3098 3099 3100 3100 3101 3102 3103 3104 3105 3106 3107 3107 3108 3108 3109 3109 3110 3111 3111 3112 3112 3113 3113 3113 3113 3113 3113 3113 3113 3113 3114 3114 3114 3114 3114 3115 3115 3114 3114 3114 3113 3113 3113 3113 3112 3112 3111
3088 3088 3087 3087 3086 3086 3086 3086 3085 3085 3084 3083 3082 3081 3080 3080 3080 3080 3080 3081 3081 3081 3081 3082 3083 3084 3085 3087 3089 3090 3091 3092 3093 3093 3094 3095 3096 3097 3098 3099 3100 3101 3101 3102 3103 3104 3105 3106 3106 3107 3107 3108 3109 3109 3110 3111 3111 3112 3112 3113 3113 3113 3113 3113 3113 3113 3113 3113 3113 3113 3113 3113 3113 3113 3113 3113 3113 3113 3112 3112 3111 3111 3111 3111 3110 3109
3088 3088 3087 3087 3086 3086 3086 3085 3085 3085 3084 3084 3083 3082 3081 3081 3081 3081 3081 3081 3081 3081 3081 3081 3083 3085 3085 3087 3089 3090 3091 3092 3093 3094 3095 3096 3097 3098 3099 3099 3100 3101 3102 3103 3104 3105 3106 3106 3107 3108 3108 3109 3110 3110 3111 3111 3112 3112 3113 3113 3113 3113 3113 3113 3113 3112 3112 3112 3112 3112 3113 3113 3113 3112 3112 3112 3112 3111 3111 3111 3110 3110 3110 3109 3109 3108
3088 3087 3087 3086 3086 3086 3085 3085 3085 3085 3085 3084 3084 3083 3082 3081 3081 3081 3081 3081 3082 3082 3082 3082 3083 3085 3087 3088 3089 3090 3092 3093 3094 3095 3096 3097 3098 3099 3099 3100 3101 3102 3103 3103 3104 3105 3106 3107 3108 3109 3110 3110 3111 3111 3112 3112 3112 3113 3113 3113 3113 3113 3113 3113 3113 3112 3112 3112 3112 3112 3112 3112 3112 3112 3111 3111 3111 3110 3110 3109 3109 3109 3108 3108 3107 3107
3088 3087 3087 3086 3086 3086 3085 3085 3085 3085 3085 3085 3084 3083 3082 3082 3081 3081 3081 3082 3082 3083 3083 3084 3085 3086 3087 3088 3090 3091 3092 3093 3094 3095 3097 3098 3099 3100 3101 3102 3102 3103 3104 3105 3106 3107 3108 3109 3109 3110 3111 3111 3111 3112 3112 3112 3113 3113 3113 3113 3113 3113 3113 3113 3113 3112 3112 3112 3111 3111 3111 3111 3110 3111 3110 3110 3110 3109 3108 3108 3108 3107 3107 3106 3105 3104
3087 3087 3086 3086 3085 3085 3085 3085 3085 3085 3085 3085 3084 3084 3083 3082 3082 3082 3082 3083 3083 3083 3084 3084 3085 3085 3087 3089 3090 3092 3093 3094 3096 3097 3098 3099 3100 3101 3102 3103 3104 3104 3105 3106 3106 3107 3108 3109 3110 3110 3111 3111 3111 3111 3111 3111 3111 3111 3111 3112 3112 3112 3112 3112 3112 3112 3112 3111 3111 3110 3110 3110 3109 3109 3109 3108 3108 3107 3107 3106 3106 3105 3104 3103 3102 3102
3087 3086 3086 3086 3085 3085 3085 3085 3085 3085 3085 3085 3085 3084 3084 3083 3083 3083 3083 3083 3084 3084 3084 3084 3085 3086 3088 3089 3091 3092 3094 3095 3097 3099 3100 3100 3101 3102 3103 3104 3104 3105 3106 3106 3107 3108 3108 3109 3109 3110 3110 3110 3110 3110 3110 3111 3110 3110 3110 3111 3111 3111 3111 3111 3111 3110 3110 3110 3110 3110 3109 3109 3108 3108 3107 3107 3106 3106 3105 3104 3103 3102 3102 3101 3100 3100
3087 3086 3086 3086 3085 3085 3085 3084 3084 3085 3086 3085 3085 3085 3084 3084 3084 3084 3084 3084 3084 3084 3084 3085 3087 3088 3089 3090 3091 3093 3094 3096 3098 3099 3100 3101 3102 3103 3104 3104 3105 3106 3107 3107 3108 3109 3109 3109 3110 3110 3110 3110 3110 3110 3110 3110 3110 3110 3110 3111 3110 3110 3110 3110 3109 3109 3108 3108 3108 3108 3107 3107 3107 3106 3105 3105 3104 3103 3103 3102 3102 3101 3100 3100 3099 3099
3086 3086 3086 3085 3085 3085 3084 3084 3085 3086 3085 3085 3085 3084 3084 3084 3084 3084 3084 3084 3084 3084 3085 3087 3088 3089 3090 3092 3093 3094 3095 3096 3098 3099 3100 3101 3102 3103 3104 3105 3106 3106 3107 3108 3109 3109 3110 3110 3110 3110 3110 3110 3110 3110 3110 3109 3109 3109 3109 3109 3109 3109 3108 3108 3107 3106 3106 3105 3105 3105 3104 3104 3104 3103 3103 3103 3102 3102 3102 3102 3101 3101 3100 3100 3100 3099
3085 3085 3085 3085 3085 3084 3084 3084 3085 3085 3084 3084 3084 3084 3085 3085 3085 3085 3085 3085 3085 3085 3086 3087 3088 3090 3091 3092 3093 3094 3095 3096 3098 3099 3100 3101 3102 3103 3104 3105 3105 3106 3107 3107 3108 3109 3109 3109 3109 3109 3109 3109 3108 3108 3108 3108 3107 3107 3107 3107 3107 3107 3106 3106 3105 3104 3104 3104 3103 3103 3102 3102 3102 3102 3102 3102 3102 3102 3102 3102 3102 3101 3101 3101 3100 3100
3085 3085 3085 3085 3085 3084 3084 3084 3084 3083 3083 3084 3084 3084 3085 3085 3086 3086 3086 3086 3086 3086 3087 3087 3088 3089 3091 3092 3093 3094 3095 3096 3098 3099 3100 3101 3102 3103 3103 3104 3105 3105 3106 3107 3107 3108 3108 3108 3108 3108 3108 3108 3107 3107 3107 3107 3106 3106 3106 3106 3106 3106 3105 3105 3104 3104 3104 3103 3103 3103 3103 3103 3103 3103 3103 3103 3103 3102 3102 3102 3102 3101 3101 3100 3100 3099
3084 3084 3084 3085 3084 3084 3084 3084 3084 3084 3083 3083 3084 3084 3085 3085 3086 3086 3086 3086 3087 3087 3087 3088 3088 3089 3091 3092 3093 3094 3095 3096 3097 3099 3100 3101 3102 3103 3103 3104 3104 3105 3106 3106 3107 3107 3107 3107 3108 3108 3108 3108 3107 3107 3106 3106 3106 3105 3105 3105 3105 3105 3104 3104 3104 3104 3104 3104 3104 3104 3104 3104 3104 3103 3103 3103 3103 3102 3102 3102 3101 3101 3101 3100 3100 3099
3084 3084 3084 3084 3084 3084 3084 3084 3084 3084 3083 3083 3084 3084 3084 3085 3085 3085 3085 3086 3087 3087 3088 3088 3089 3090 3091 3092 3093 3094 3094 3095 3097 3099 3100 3102 3102 3103 3103 3104 3105 3105 3106 3106 3107 3107 3107 3107 3107 3108 3108 3107 3107 3107 3106 3106 3106 3105 3105 3104 3104 3104 3104 3104 3104 3104 3104 3105 3105 3105 3104 3104 3104 3104 3103 3103 3103 3102 3102 3102 3101 3101 3101 3100 3100 3099
3084 3084 3084 3084 3084 3084 3084 3084 3083 3083 3082 3083 3083 3083 3083 3084 3084 3085 3086 3086 3086 3087 3088 3088 3089 3089 3091 3092 3093 3094 3094 3095 3097 3099 3101 3102 3103 3103 3103 3104 3104 3105 3105 3106 3106 3107 3107 3107 3107 3107 3107 3107 3107 3107 3106 3106 3106 3105 3105 3105 3105 3104 3104 3104 3105 3105 3105 3105 3105 3105 3104 3104 3104 3103 3103 3103 3103 3102 3102 3102 3101 3101 3100 3099 3099 3098
3083 3083 3083 3083 3083 3083 3083 3083 3083 3082 3082 3082 3083 3083 3083 3083 3084 3084 3085 3085 3085 3086 3087 3087 3088 3088 3089 3091 3092 3093 3093 3095 3097 3099 3101 3102 3102 3102 3102 3103 3103 3104 3105 3105 3106 3106 3106 3106 3107 3107 3107 3107 3106 3106 3106 3106 3105 3105 3105 3105 3105 3105 3105 3105 3105 3105 3105 3105 3105 3105 3104 3104 3104 3103 3103 3103 3102 3102 3101 3101 3100 3100 3099 3098 3097 3097
3083 3083 3083 3083 3082 3083 3083 3083 3083 3082 3081 3081 3082 3082 3082 3083 3083 3083 3084 3084 3084 3085 3085 3086 3086 3086 3087 3088 3089 3090 3092 3094 3096 3098 3100 3100 3101 3101 3102 3102 3103 3103 3104 3104 3105 3105 3106 3106 3106 3106 3106 3106 3105 3105 3105 3105 3105 3105 3105 3105 3105 3106 3106 3105 3105 3105 3105 3105 3105 3104 3104 3104 3104 3103 3103 3102 3101 3101 3100 3099 3099 3098 3097 3097 3096 3095
3083 3083 3082 3082 3082 3082 3082 3082 3082 3082 3081 3081 3081 3081 3082 3082 3082 3082 3083 3083 3083 3083 3084 3084 3084 3084 3085 3086 3088 3090 3091 3093 3095 3096 3098 3099 3100 3100 3101 3101 3102 3102 3103 3103 3104 3104 3105 3105 3105 3105 3105 3105 3105 3105 3105 3105 3105 3105 3105 3105 3105 3105 3105 3105 3105 3105 3104 3104 3104 3104 3103 3103 3103 3102 3102 3101 3101 3100 3099 3098 3098 3097 3096 3095 3094 3093
3082 3082 3082 3082 3082 3082 3082 3082 3082 3081 3081 3081 3081 3080 3081 3081 3081 3082 3082 3082 3082 3083 3083 3083 3084 3085 3086 3088 3089 3090 3090 3091 3093 3094 3096 3097 3098 3099 3100 3101 3101 3102 3102 3103 3103 3103 3104 3104 3104 3104 3104 3105 3105 3105 3105 3105 3106 3106 3106 3105 3105 3105 3105 3105 3104 3104 3104 3103 3103 3103 3102 3102 3102 3101 3101 3100 3099 3098 3098 3097 3096 3095 3094 3093 3092 3091
3081 3082 3082 3082 3082 3081 3081 3081 3081 3081 3081 3081 3080 3080 3080 3080 3081 3081 3081 3081 3081 3081 3082 3082 3083 3084 3086 3087 3088 3089 3090 3091 3091 3092 3094 3096 3097 3098 3100 3101 3101 3102 3102 3102 3103 3103 3103 3104 3104 3105 3105 3105 3105 3106 3106 3106 3106 3106 3106 3106 3105 3105 3105 3105 3104 3104 3103 3103 3102 3102 3101 3101 3100 3100 3099 3098 3097 3097 3096 3095 3094 3093 3092 3091 3090 3089
3081 3081 3081 3081 3081 3081 3081 3080 3080 3079 3079 3080 3080 3079 3079 3080 3080 3080 3080 3080 3080 3080 3081 3082 3083 3083 3085 3086 3088 3089 3091 3092 3093 3094 3095 3097 3097 3099 3101 3102 3102 3103 3103 3103 3103 3103 3103 3104 3105 3105 3106 3106 3106 3106 3106 3106 3106 3106 3106 3105 3105 3105 3104 3104 3103 3103 3102 3102 3102 3101 3100 3100 3099 3098 3097 3096 3095 3095 3094 3093 3092 3091 3090 3088 3087 3086
3080 3080 3081 3081 3081 3080 3080 3080 3079 3079 3079 3079 3079 3079 3079 3079 3079 3079 3079 3079 3079 3080 3081 3082 3083 3084 3085 3086 3088 3090 3091 3093 3095 3096 3097 3097 3098 3100 3102 3103 3103 3103 3103 3103 3104 3104 3105 3105 3106 3106 3106 3106 3106 3106 3106 3106 3105 3105 3105 3105 3104 3104 3103 3103 3102 3101 3101 3101 3100 3100 3099 3098 3097 3097 3096 3095 3094 3093 3092 3091 3090 3089 3087 3086 3085 3083
3079 3080 3080 3080 3080 3080 3079 3079 3079 3079 3079 3079 3078 3078 3078 3079 3079 3079 3079 3079 3080 3080 3081 3083 3084 3085 3086 3087 3088 3090 3092 3094 3096 3097 3097 3098 3100 3101 3102 3103 3103 3103 3104 3104 3104 3105 3105 3106 3106 3106 3106 3106 3106 3106 3105 3105 3105 3105 3104 3104 3103 3103 3102 3101 3101 3100 3099 3099 3098 3098 3097 3096 3096 3095 3094 3093 3091 3090 3089 3088 3087 3086 3085 3083 3081 3080
3078 3079 3079 3079 3079 3079 3079 3079 3078 3079 3079 3079 3079 3079 3079 3079 3079 3080 3080 3080 3080 3081 3082 3084 3085 3087 3088 3089 3090 3092 3093 3095 3096 3097 3098 3099 3101 3102 3103 3103 3104 3104 3104 3105 3105 3105 3106 3106 3106 3106 3106 3106 3106 3105 3105 3105 3104 3104 3103 3103 3102 3101 3101 3100 3099 3099 3098 3097 3097 3096 3095 3094 3093 3092 3091 3090 3089 3087 3086 3085 3083 3082 3081 3080 3078 3077
3078 3078 3078 3079 3079 3079 3079 3079 3079 3079 3080 3079 3079 3080 3080 3081 3081 3082 3082 3082 3082 3083 3085 3086 3087 3089 3091 3092 3093 3094 3095 3096 3097 3098 3099 3101 3102 3102 3103 3104 3104 3105 3105 3105 3106 3106 3106 3107 3107 3107 3106 3106 3106 3105 3104 3104 3103 3103 3102 3102 3101 3101 3100 3099 3098 3097 3096 3095 3094 3093 3092 3091 3090 3089 3088 3087 3085 3084 3083 3082 3081 3079 3078 3077 3076 3074
3077 3077 3078 3078 3078 3078 3079 3079 3080 3080 3080 3080 3081 3081 3082 3083 3085 3085 3084 3085 3086 3087 3088 3089 3090 3091 3092 3093 3094 3096 3097 3098 3098 3100 3101 3101 3102 3103 3104 3105 3105 3106 3106 3106 3107 3107 3107 3107 3107 3107 3106 3106 3105 3104 3104 3103 3103 3103 3103 3102 3101 3100 3099 3098 3097 3096 3095 3094 3092 3091 3090 3088 3087 3086 3085 3083 3082 3081 3079 3078 3077 3076 3075 3074 3072 3071
Wind_Speed
14 14 10 7 3 3 4 4 4 4 5 5 6 6 7 8 8 7 7 6 6 4 4 6 6 6 4 2 2 5 8 9 11 10 10 11 13 14 15 13 13 17 21 23 26 24 23 25 24 20 17 15 14 13 11 11 10 10 10 10 11 10 10 9 9 10 10 9 8 7 5 2 2 5 6 7 8 8 7 7 7 5 4 3 4 5
14 13 8 7 6 4 4 5 5 4 5 5 5 5 6 8 8 7 6 5 6 4 5 8 7 4 2 4 3 5 7 9 11 12 10 9 10 12 13 14 15 18 21 24 27 23 20 22 22 18 15 13 12 11 10 10 9 9 10 11 11 11 9 10 10 10 10 9 8 7 4 2 3 4 6 7 8 8 8 8 7 5 4 4 5 6
11 10 8 7 6 6 5 6 6 6 6 6 5 6 7 7 7 7 6 5 5 5 6 9 7 4 2 5 5 3 6 10 12 12 9 6 8 10 12 16 18 20 23 23 24 23 18 17 18 15 13 12 11 10 9 10 10 10 11 11 10 11 10 10 11 10 10 10 8 7 4 2 3 4 6 7 8 8 8 8 7 5 4 5 6 6
11 9 10 9 7 6 7 7 7 8 7 5 5 7 8 7 6 6 7 5 4 4 6 8 7 7 3 4 5 3 5 11 13 10 6 5 8 12 14 17 20 22 24 24 23 21 17 16 15 13 12 11 10 9 8 11 12 10 11 11 9 10 10 10 11 10 10 9 8 6 3 2 3 4 6 7 8 8 8 7 7 5 5 5 6 7
11 10 11 12 11 8 6 7 7 8 6 4 5 8 8 5 5 5 6 4 2 3 6 7 7 9 5 2 5 3 2 6 12 12 7 5 9 14 15 17 22 24 24 26 24 20 17 16 14 13 12 11 10 9 9 11 12 10 11 11 10 11 10 10 10 10 10 9 7 5 2 2 2 4 5 7 8 8 7 6 6 5 5 5 7 7
11 10 10 12 13 10 7 5 5 5 5 4 5 7 6 4 3 3 2 1 1 1 5 6 5 7 6 3 5 4 4 4 9 11 7 5 8 13 16 19 22 24 24 24 21 18 16 14 13 12 11 11 10 10 10 10 11 11 11 12 12 12 11 11 11 10 10 9 7 4 2 1 1 3 5 6 6 6 5 5 4 5 5 6 7 8
11 10 9 10 11 10 7 5 4 4 5 7 7 7 7 6 4 2 2 2 2 2 4 7 4 4 5 3 5 6 6 6 7 10 9 7 7 12 18 21 20 20 21 20 17 15 14 12 12 11 11 11 10 10 11 11 12 12 12 12 12 12 11 11 11 11 10 9 7 5 2 1 0 2 4 5 5 4 4 3 4 5 6 7 8 9
11 8 8 9 9 9 8 6 5 4 4 6 7 7 7 7 6 3 3 4 4 4 5 6 4 4 5 4 4 7 7 6 6 8 10 10 11 13 16 17 15 15 16 15 13 13 12 12 12 11 11 10 10 10 12 13 12 12 13 13 12 12 12 12 12 12 11 10 8 5 3 2 1 1 3 5 5 5 4 3 4 5 6 8 9 9
11 7 7 7 8 9 8 7 7 5 5 6 6 7 8 8 6 2 5 4 3 3 5 6 4 3 4 5 4 7 8 7 6 8 11 12 12 12 13 14 14 14 13 13 12 12 12 13 12 12 12 12 11 12 13 13 14 14 14 13 13 14 13 12 12 12 11 10 8 5 4 3 2 1 4 6 7 7 6 3 3 4 4 6 7 8
10 7 6 6 7 8 7 7 7 6 6 6 6 8 9 6 3 3 5 3 1 2 6 8 6 3 3 6 5 6 8 9 9 10 13 13 12 11 12 13 13 14 13 12 12 12 12 13 13 13 13 12 12 12 13 14 15 15 15 15 14 13 12 12 13 12 12 10 8 6 5 4 3 2 4 6 7 8 8 5 2 3 3 4 5 6
8 6 4 4 5 7 7 7 7 6 6 6 6 7 8 5 4 4 5 1 1 2 5 8 7 4 3 5 5 6 7 9 11 13 14 14 12 11 11 11 12 13 13 13 13 12 12 12 12 12 12 12 12 12 13 14 15 16 15 16 15 13 11 12 13 12 12 10 9 7 6 5 3 2 3 5 7 8 8 8 4 1 3 3 4 4
7 7 6 4 4 6 6 7 8 6 5 5 5 6 6 3 3 2 2 0 1 2 5 7 6 5 3 3 4 3 6 9 10 11 11 10 10 11 11 12 12 12 12 13 13 13 12 11 11 11 11 12 12 13 13 12 14 16 15 16 15 13 11 12 13 13 12 10 9 7 6 5 3 2 2 4 5 6 7 7 5 2 1 2 3 3
7 9 11 5 2 5 6 7 9 8 6 5 5 7 6 2 2 1 1 2 1 1 4 6 5 5 3 4 4 0 5 8 9 9 8 8 10 11 12 12 11 10 10 11 12 12 12 11 10 10 10 10 11 12 13 13 13 15 15 15 14 13 12 13 13 12 11 9 8 8 7 5 4 3 2 2 4 4 4 4 4 4 3 2 1 1
8 8 12 8 2 4 6 8 10 10 9 6 5 8 5 1 2 1 0 1 1 2 3 3 3 4 4 4 5 1 5 6 7 8 8 9 10 10 10 11 11 9 9 10 11 13 12 11 11 10 9 9 10 12 12 12 13 14 15 15 15 15 14 13 12 11 10 9 9 8 7 6 4 4 2 2 2 2 1 2 3 4 5 4 4 3
9 5 10 10 5 5 5 7 9 9 8 7 6 7 5 2 1 1 1 1 1 0 2 2 2 4 5 5 5 2 4 5 5 7 7 8 8 8 8 10 12 10 9 9 10 12 12 11 11 11 10 10 12 13 12 12 13 13 13 14 15 15 14 13 13 12 11 10 10 8 7 6 5 4 3 1 1 0 1 1 1 3 4 4 5 4
9 6 8 10 8 6 4 5 8 7 7 6 5 6 5 4 3 3 5 4 2 2 3 4 3 5 7 7 5 2 4 5 5 5 6 7 7 7 8 11 13 11 10 10 11 12 11 10 10 11 11 11 12 14 15 15 14 12 12 15 15 14 13 13 13 12 12 11 11 9 7 6 6 5 3 2 2 2 3 3 2 3 3 5 5 5
9 8 7 7 7 7 6 6 6 7 6 4 4 6 4 6 6 5 5 4 3 2 3 5 4 4 6 7 7 4 3 5 5 5 6 6 7 7 9 11 12 11 11 11 11 11 10 9 9 9 11 13 13 15 15 15 14 13 12 14 14 13 12 11 11 13 13 12 10 9 8 8 7 6 5 4 4 4 4 5 4 4 5 5 5 5
10 8 6 6 5 5 7 7 6 6 4 3 3 5 6 6 4 3 2 2 3 2 2 5 5 5 6 6 7 6 4 5 5 6 7 7 7 8 10 10 11 11 11 10 10 9 8 9 8 9 12 15 14 14 14 13 13 13 13 14 15 13 12 11 11 14 14 12 11 9 9 10 8 7 6 7 7 6 6 7 7 7 7 6 5 5
11 7 5 6 5 4 4 6 9 8 4 3 2 3 4 2 1 2 2 1 2 1 1 4 5 6 9 8 7 6 6 6 6 6 7 7 7 8 10 10 10 12 11 10 9 7 7 8 9 8 11 13 12 13 14 13 13 12 11 13 13 11 10 10 11 13 13 13 12 11 11 10 9 9 10 10 10 9 8 9 10 9 9 8 7 7
11 5 5 6 5 5 6 5 6 8 6 4 2 1 2 1 1 2 2 1 2 1 0 3 3 5 8 8 6 6 7 7 8 8 8 8 8 8 9 10 10 10 10 10 10 8 9 10 10 9 10 10 11 12 12 11 10 9 8 9 9 9 9 9 10 12 12 12 13 12 12 11 10 11 12 11 11 10 10 11 12 12 11 10 10 10
11 6 7 6 3 4 4 4 5 5 5 4 3 1 2 0 3 3 3 3 3 2 1 1 1 2 5 6 6 7 7 7 8 9 8 8 8 9 9 10 11 10 10 11 9 8 9 10 11 11 11 10 10 10 10 10 8 7 7 8 10 10 9 9 9 10 11 11 11 11 11 11 11 12 12 12 13 13 12 12 13 13 13 13 12 11
11 7 7 3 3 5 5 6 5 2 2 2 4 5 1 2 3 3 2 2 3 3 3 2 1 1 3 5 6 7 8 8 8 8 9 8 8 9 10 11 11 11 11 10 9 7 8 10 10 11 10 10 9 9 9 9 9 8 8 10 10 10 9 8 8 9 9 9 10 10 10 11 12 12 12 13 14 14 14 14 14 14 15 15 14 12
9 7 5 1 3 5 5 7 7 5 4 1 5 7 2 3 2 0 1 3 6 7 6 5 3 2 4 7 7 8 9 10 9 9 10 10 10 11 11 12 12 12 11 10 10 9 9 10 10 9 9 9 8 7 7 7 8 8 7 7 8 7 7 7 8 8 7 7 7 7 8 9 10 10 11 13 12 12 13 13 13 13 14 14 14 13
8 7 4 2 1 1 1 4 5 7 6 3 6 9 3 3 3 2 1 6 10 9 6 4 2 2 6 8 9 10 11 11 11 10 11 12 13 13 13 12 12 12 12 11 11 10 10 10 10 8 8 8 8 7 6 6 6 6 5 5 6 6 5 5 5 5 5 5 5 6 6 7 8 8 10 11 10 10 10 10 10 11 11 12 12 12
7 7 5 3 2 2 3 3 3 7 8 7 9 9 4 2 3 3 4 8 9 7 6 2 1 6 9 10 11 11 11 12 12 13 13 13 14 14 14 13 12 12 12 11 10 10 10 10 9 8 7 7 7 6 5 4 4 4 4 4 4 4 3 3 4 4 4 5 5 6 5 5 5 6 7 7 8 8 8 8 9 10 10 11 12 12
6 6 6 3 1 1 2 2 5 9 9 9 10 10 6 2 2 2 6 9 7 7 6 4 7 13 14 13 13 12 12 13 14 14 15 15 15 15 14 13 13 12 11 11 10 9 9 9 9 9 7 6 6 5 5 4 4 3 3 2 2 2 2 3 3 4 4 5 4 4 4 4 4 4 5 6 6 7 8 9 9 10 10 11 12 13
4 4 5 4 2 2 2 3 7 8 8 9 10 10 7 3 3 1 5 5 5 8 7 6 14 19 17 16 15 13 12 13 14 14 15 15 15 15 14 13 13 12 11 10 10 10 9 8 8 8 7 6 6 6 6 5 5 4 4 3 3 2 1 1 2 2 3 3 3 3 3 4 4 5 6 6 7 8 9 10 10 10 11 11 12 13
3 3 4 5 5 5 4 5 7 6 6 7 8 9 6 2 3 1 3 2 2 5 4 9 19 20 18 18 15 13 13 13 14 14 13 14 14 13 13 13 12 12 12 11 11 11 10 8 8 8 8 7 7 7 7 6 6 5 5 5 4 3 2 1 2 2 2 3 3 4 5 5 6 7 8 8 9 10 10 11 11 12 12 13 14 14
4 4 5 5 5 6 6 6 6 5 5 6 7 8 5 2 2 2 3 4 2 3 2 10 20 18 18 19 15 13 13 13 13 13 12 12 13 12 12 12 12 11 11 11 11 11 10 9 8 8 8 8 7 7 6 6 5 4 4 3 3 2 1 1 1 2 3 4 5 6 7 8 9 10 10 11 11 11 11 12 12 13 13 14 15 15
4 5 6 6 5 5 6 6 5 4 4 5 7 7 3 3 5 7 7 7 4 3 3 12 20 16 16 17 15 15 14 13 13 12 11 12 12 12 12 11 11 10 10 10 9 9 9 8 8 8 8 7 6 5 4 3 2 1 1 1 1 1 2 2 3 4 6 7 8 9 9 10 11 12 12 13 12 12 13 14 14 15 15 16 17 17
4 5 7 7 6 5 6 6 3 2 3 5 6 6 2 1 2 5 8 9 7 4 6 16 19 17 17 17 16 16 15 14 14 13 12 12 11 11 12 11 10 10 9 9 8 8 8 8 8 7 6 4 3 2 1 0 1 2 2 3 3 3 4 4 5 6 8 9 10 11 12 12 13 13 14 14 14 14 15 16 16 17 17 18 18 17
4 4 6 8 7 6 7 6 4 3 5 6 5 5 3 4 4 2 2 5 6 5 12 20 21 19 20 19 17 18 17 16 16 15 14 13 11 11 11 10 10 9 8 8 7 7 6 6 6 5 3 2 0 2 3 3 4 4 4 4 4 5 5 6 7 8 9 10 11 11 12 13 13 13 14 14 15 16 16 17 17 17 17 17 17 17
5 4 6 7 6 6 7 7 7 6 6 6 4 2 4 4 4 3 2 2 5 7 12 18 20 20 21 20 20 19 18 17 16 15 13 11 10 9 9 9 8 7 7 7 6 5 4 3 2 1 1 2 4 4 5 5 5 5 6 6 6 7 7 8 9 9 10 10 10 10 10 11 11 12 12 13 13 14 14 14 15 16 16 17 17 17
6 5 6 5 4 5 6 6 6 5 3 3 3 1 1 3 3 2 2 3 5 8 12 15 17 19 19 19 19 19 19 18 16 15 12 9 8 7 7 7 7 7 7 7 6 5 4 3 2 3 4 5 5 4 4 4 5 6 6 6 7 7 8 8 8 8 8 8 8 9 9 10 10 10 11 11 12 13 13 14 14 15 15 14 14 13
7 6 5 4 4 5 5 3 2 2 2 3 4 3 2 1 0 1 1 2 4 7 12 14 15 17 17 17 18 18 18 18 17 15 12 10 9 8 7 7 8 8 8 8 8 7 6 6 5 5 5 5 4 4 4 5 7 7 6 6 7 7 7 7 8 8 8 9 9 10 10 11 11 12 12 11 10 10 10 9 9 9 8 8 8 8
7 6 5 5 6 5 3 2 2 2 5 7 6 4 4 2 2 1 1 3 5 10 12 12 13 17 17 18 18 18 18 19 18 15 11 11 11 9 8 7 7 7 7 7 7 7 6 6 6 5 5 5 5 6 6 7 8 8 8 8 8 8 8 8 8 9 9 9 10 10 10 10 9 9 7 6 5 5 4 5 5 5 6 6 7 7
5 6 7 7 6 5 3 3 5 7 8 8 7 5 4 4 3 3 4 4 8 13 11 10 13 18 19 19 19 19 19 19 17 15 12 11 10 8 6 6 4 4 5 5 5 5 5 6 5 5 6 7 7 8 8 8 9 8 8 8 8 8 8 8 8 8 8 7 6 5 5 4 4 4 4 4 4 5 5 5 6 7 7 8 8 9
3 4 6 6 6 6 6 5 4 4 4 5 6 6 5 5 5 6 7 7 9 14 12 11 14 18 18 19 20 20 19 19 18 15 13 10 9 7 6 5 4 4 4 4 5 5 5 6 6 6 7 8 8 9 9 9 9 9 8 8 8 8 8 7 6 5 3 3 3 3 3 3 3 4 4 5 5 6 6 7 8 8 9 9 9 10
3 3 5 5 6 6 7 5 3 2 3 4 5 6 6 6 7 8 8 8 8 14 15 12 13 16 17 17 19 20 20 19 19 16 11 7 7 8 7 6 6 6 5 5 5 6 6 7 7 7 8 8 8 9 9 8 8 9 8 8 7 6 4 3 3 4 5 5 5 4 4 5 5 5 6 7 7 8 9 9 10 10 11 11 11 11
4 4 4 5 5 5 6 6 5 5 5 5 5 5 6 7 8 6 4 5 5 9 16 17 15 16 17 17 18 19 19 19 18 17 11 7 6 7 7 7 7 7 6 6 6 7 7 7 7 8 8 8 8 8 8 8 7 6 5 4 3 3 4 4 5 6 5 6 6 6 7 7 8 8 9 9 10 10 11 12 12 13 13 14 14 14
5 5 4 5 5 5 7 7 7 7 7 8 7 7 7 8 8 7 5 5 8 6 12 18 19 17 17 18 19 20 20 18 17 15 10 7 5 6 6 7 7 7 7 6 6 7 7 8 8 8 7 7 7 7 6 5 2 1 2 4 4 5 4 5 5 6 6 6 7 7 8 8 9 10 11 11 12 13 13 14 14 15 15 16 17 17
4 3 3 4 4 5 6 7 7 8 9 9 9 9 8 8 7 7 7 9 10 8 9 16 21 21 20 21 22 22 22 19 16 13 11 9 8 8 8 8 7 7 6 6 6 7 7 7 7 7 6 6 5 4 2 2 4 5 5 5 4 4 5 5 6 7 7 8 8 9 9 10 11 11 12 13 14 15 15 16 17 18 18 18 19 19
3 3 3 3 3 4 5 5 5 5 7 8 9 11 10 9 10 10 10 10 11 11 11 14 20 24 25 24 23 23 23 20 15 13 13 12 11 10 9 8 7 6 6 6 6 7 7 7 6 5 5 3 2 3 4 5 6 5 5 5 6 6 6 7 8 8 9 10 11 12 12 13 13 14 15 15 16 17 17 18 19 19 19 19 20 20
4 4 3 3 3 4 3 3 4 5 6 7 8 10 11 12 13 14 14 14 14 14 13 14 18 22 23 22 22 22 21 18 15 15 17 16 13 11 8 7 6 5 5 6 6 7 7 6 5 4 3 2 4 5 5 5 5 5 5 6 6 7 7 8 9 11 12 13 14 14 15 15 16 16 16 17 17 18 18 19 19 20 20 20 20 21
3 3 4 4 4 5 6 6 8 9 9 9 10 11 12 13 13 14 15 15 15 14 11 11 15 20 22 23 22 19 16 14 14 16 18 16 14 10 7 5 5 5 5 5 6 6 6 5 4 2 2 3 4 5 5 5 5 5 6 6 7 8 9 10 11 12 12 13 14 15 16 16 17 18 18 19 19 19 19 20 20 21 21 21 21 21
4 5 5 5 4 6 8 9 10 12 11 10 10 11 11 11 12 13 13 12 12 12 9 9 15 20 22 23 21 15 11 11 14 15 15 14 12 9 7 5 5 5 4 4 5 5 4 3 2 3 4 4 5 5 5 5 6 6 6 7 8 9 10 11 11 12 12 13 14 15 16 17 17 18 18 19 19 20 20 20 21 21 21 22 22 21
6 6 6 5 5 6 7 7 8 10 10 9 8 8 8 8 8 9 9 7 7 7 7 10 16 19 20 18 15 10 9 12 14 14 13 12 9 7 6 5 4 3 3 3 2 1 1 2 3 4 4 5 5 5 5 5 6 6 7 8 9 10 11 12 13 14 15 15 16 16 16 17 17 17 18 18 19 19 20 20 21 21 22 23 23 23
5 5 4 4 4 5 6 7 7 6 7 7 5 4 3 3 4 3 1 1 4 8 11 12 13 14 14 12 11 12 15 16 14 12 11 9 7 6 4 3 2 2 1 1 3 4 4 4 4 4 4 4 4 4 5 6 7 8 9 10 11 12 12 13 14 15 16 16 17 17 17 17 17 18 18 19 20 20 21 22 22 22 22 23 23 23
5 5 3 2 3 3 4 5 5 4 4 3 0 3 5 6 6 7 8 9 9 10 11 12 14 15 14 14 15 14 14 14 13 10 9 7 6 5 4 3 3 4 5 6 6 6 5 4 4 3 3 4 5 5 6 7 8 9 10 11 12 13 14 15 15 16 16 17 17 18 19 19 20 20 20 21 21 22 22 22 22 22 21 20 21 21
5 4 3 3 3 2 3 4 3 2 1 6 11 14 16 16 15 14 14 13 12 12 11 13 18 19 18 17 15 12 10 11 11 9 8 7 6 6 6 6 7 8 8 8 6 5 4 4 3 3 4 5 5 6 8 9 10 11 12 14 15 16 17 18 19 20 20 21 21 21 21 21 22 22 22 21 21 21 21 21 21 21 20 20 20 20
4 4 3 3 3 2 2 3 3 4 9 16 20 22 23 21 18 17 17 17 17 18 16 14 15 17 18 17 15 11 10 10 11 10 9 9 9 9 9 10 10 9 8 7 5 4 4 3 3 4 5 6 8 9 11 12 13 14 15 16 16 17 17 18 19 20 21 22 23 24 24 24 24 24 24 24 23 23 23 23 22 22 22 22 21 21
Wind_Direction
352 346 336 332 320 251 241 255 278 300 325 345 348 356 354 347 351 342 344 358 355 4 6 1 358 351 23 88 167 165 152 145 141 151 179 201 204 210 213 209 194 176 165 160 158 158 155 148 144 146 150 151 153 153 156 162 166 163 161 163 164 160 160 160 154 153 156 156 151 138 136 125 36 15 2 344 329 322 316 308 298 297 293 258 238 232
356 356 348 343 341 309 268 272 286 299 318 334 336 337 346 348 344 334 337 348 345 2 17 13 18 12 71 124 140 154 160 163 155 166 190 194 196 204 202 197 187 171 166 164 160 157 157 152 144 144 149 153 153 153 159 168 171 168 167 169 169 168 166 166 166 164 162 156 148 145 148 114 28 6 350 331 320 315 308 300 290 287 280 255 236 224
6 7 4 350 333 322 301 287 288 295 308 321 319 314 329 343 343 339 348 359 344 353 12 6 19 54 117 141 143 167 180 177 169 173 187 178 183 192 185 186 182 170 169 166 156 152 156 151 141 141 153 158 157 159 166 174 176 174 176 176 170 173 178 175 171 167 164 158 154 155 148 87 18 356 338 323 317 309 300 292 281 276 267 251 234 220
12 9 13 10 351 326 307 299 295 292 299 305 304 305 316 333 342 344 349 3 357 343 358 358 25 69 95 149 148 179 190 181 183 185 191 188 182 180 177 177 174 169 167 160 152 152 151 145 143 151 159 160 160 167 174 176 180 180 180 182 178 178 182 180 175 171 167 163 159 154 129 64 11 347 327 318 313 303 293 283 271 261 254 246 226 214
5 4 10 12 9 355 321 311 306 298 299 299 309 321 328 331 331 335 339 358 14 341 350 3 41 63 63 127 142 159 173 175 190 197 203 194 177 175 173 166 163 162 161 157 151 147 146 148 155 161 160 158 161 171 176 176 181 185 185 187 186 184 183 181 178 173 167 163 160 153 118 61 6 334 318 315 311 301 289 274 265 251 243 238 217 206
5 8 8 10 14 8 348 340 335 318 319 330 343 347 353 3 347 345 348 10 77 27 11 20 46 59 56 91 128 123 72 93 164 181 180 169 175 175 161 154 160 160 156 155 151 144 147 153 157 161 162 164 169 177 180 177 178 186 193 194 191 187 184 179 176 174 168 164 162 156 128 85 357 321 314 317 313 305 290 271 261 244 233 225 211 204
6 10 10 14 20 17 9 9 10 352 342 348 357 359 6 22 20 14 54 76 89 92 46 38 50 76 68 84 141 132 95 82 134 158 156 148 155 159 151 151 160 158 148 152 154 148 150 154 157 161 166 172 180 188 191 187 183 189 199 202 197 190 182 176 175 176 172 167 165 159 147 142 318 314 321 330 331 323 301 273 255 241 228 217 210 209
5 10 15 15 22 28 25 25 22 10 358 356 360 1 3 11 8 17 72 71 67 74 65 51 57 90 81 80 152 155 130 109 123 148 159 153 143 146 149 145 146 147 144 149 153 148 153 161 162 166 174 183 195 201 201 198 193 196 203 205 202 195 184 176 176 178 175 171 168 163 163 176 192 316 346 358 5 1 342 291 251 243 230 216 214 217
6 6 12 9 15 25 26 25 22 19 11 2 6 9 3 358 354 50 88 54 51 74 43 35 45 63 68 73 132 171 161 145 142 156 166 162 148 145 147 139 134 142 147 147 151 157 166 170 170 177 186 193 202 205 204 202 199 201 205 204 207 206 192 178 178 181 178 175 171 167 171 180 180 80 19 21 25 21 13 344 258 245 228 216 217 221
6 0 1 1 6 14 20 20 18 29 26 6 10 14 9 7 11 125 119 61 73 113 18 11 18 29 55 68 103 156 171 166 165 170 173 171 162 149 146 145 145 149 153 156 163 172 179 179 180 187 194 196 201 205 206 206 204 204 205 205 209 213 199 181 181 184 181 177 172 171 173 177 170 93 42 37 36 31 25 17 306 236 210 202 208 218
5 3 352 350 359 359 9 13 7 23 31 12 12 12 13 41 76 126 156 154 63 70 8 1 3 16 51 56 78 133 164 167 166 168 172 174 167 154 153 155 156 161 167 173 178 182 185 187 190 196 200 202 204 209 208 207 206 205 209 210 210 212 203 187 184 186 182 177 175 175 177 174 159 99 57 51 46 39 32 27 10 269 211 204 208 217
352 2 351 335 345 347 358 1 353 2 18 12 12 3 359 26 73 111 168 95 51 37 3 355 6 37 60 31 39 114 159 166 170 168 166 165 157 153 157 159 162 172 180 183 184 184 189 195 201 207 211 213 215 213 208 206 208 207 210 213 210 209 209 197 190 189 182 177 177 176 178 174 159 137 91 69 57 47 39 29 14 355 251 205 201 213
346 6 3 351 327 341 348 347 345 353 357 351 1 0 351 355 31 25 20 32 34 35 11 357 13 48 44 2 360 149 171 171 176 173 161 149 145 146 150 157 165 175 179 180 179 179 188 196 205 213 212 212 213 210 207 209 213 210 208 213 209 205 210 204 197 192 181 178 183 180 181 177 170 180 164 89 71 57 47 30 4 350 343 322 287 272
358 19 18 17 2 343 344 336 336 342 344 338 346 353 354 52 53 17 352 38 7 349 358 355 16 32 20 2 354 321 185 182 172 163 154 143 141 144 150 159 166 173 173 171 172 175 182 189 197 208 204 200 203 205 208 212 216 213 208 211 208 202 207 207 198 190 182 186 192 188 186 182 184 199 188 118 89 70 39 20 355 343 342 335 327 322
356 16 24 28 29 8 4 345 333 327 334 347 355 350 356 31 14 326 111 122 176 296 4 10 13 4 14 15 359 27 163 179 166 154 149 140 137 142 156 167 168 171 170 169 174 176 179 183 190 199 197 195 201 202 205 208 212 213 209 210 207 200 204 204 190 181 183 191 194 190 189 189 200 214 209 180 160 221 287 295 322 327 329 326 322 319
349 355 15 26 32 27 23 3 350 345 344 355 360 347 355 23 40 84 90 94 148 136 30 10 20 32 42 39 15 35 141 163 168 165 159 147 142 145 159 172 172 170 171 175 182 181 179 182 189 196 193 192 202 205 203 202 204 210 210 207 205 202 205 202 187 179 186 193 190 189 195 201 210 224 236 231 224 244 255 253 266 291 310 316 319 317
341 348 5 18 25 27 24 8 1 5 5 6 7 11 51 83 79 82 85 72 66 77 22 1 25 54 53 42 26 34 132 156 169 177 173 163 155 157 168 174 174 177 182 183 184 181 180 185 189 193 192 197 206 207 203 200 201 206 208 206 208 204 202 200 188 186 195 201 196 193 200 209 215 224 240 248 248 248 245 248 262 279 290 296 305 314
336 340 6 11 7 17 21 14 7 2 1 11 31 57 92 102 74 61 74 34 35 58 19 3 23 40 40 40 34 39 93 139 164 174 174 171 165 167 172 174 178 188 191 185 181 178 177 184 188 183 188 198 201 199 199 199 200 205 204 204 206 199 193 195 193 194 200 208 214 215 217 223 228 237 249 253 253 250 240 240 250 266 277 282 295 311
342 335 355 357 348 338 338 2 23 28 19 16 43 79 84 81 55 66 67 23 42 76 342 352 7 28 39 46 47 52 74 105 140 161 174 177 177 174 171 174 184 189 186 179 176 169 162 179 189 177 180 190 186 185 192 197 198 198 195 198 201 194 193 199 198 200 204 209 218 228 237 242 242 246 253 251 249 247 242 241 241 249 266 280 290 296
349 337 334 343 353 339 315 320 7 30 32 32 61 76 4 3 178 123 87 88 93 136 251 5 6 19 39 52 65 69 80 102 128 148 165 175 180 176 166 167 175 176 173 171 169 158 157 175 183 174 172 175 172 175 184 187 186 185 188 196 198 195 198 200 201 207 213 217 222 230 243 251 250 251 258 259 255 251 247 250 253 256 266 276 282 287
352 345 328 331 6 14 355 336 337 6 15 18 47 351 302 117 134 125 89 77 97 138 183 69 27 17 44 66 77 76 89 108 122 135 146 158 170 168 159 159 162 162 164 168 166 157 160 167 167 165 167 168 168 169 170 170 171 175 188 198 200 200 196 193 202 213 219 225 231 235 244 254 257 259 263 263 260 260 259 261 267 270 273 273 275 282
352 346 330 324 67 69 52 26 12 27 36 23 17 358 288 155 125 122 85 68 101 119 142 137 115 63 80 95 89 84 99 109 113 123 128 135 150 154 150 148 152 156 159 165 167 158 156 156 152 154 158 161 166 166 164 168 169 172 184 191 196 201 197 194 205 214 219 228 237 242 248 256 261 263 265 262 262 269 274 274 276 278 279 279 280 281
353 349 335 218 109 86 63 33 30 44 64 89 358 352 302 218 250 181 113 129 122 115 124 122 97 112 125 120 110 101 104 106 108 118 122 123 127 131 135 136 141 149 154 157 157 150 148 145 141 145 152 155 161 166 166 165 162 165 178 186 190 199 206 210 215 219 225 234 245 256 261 266 268 271 272 271 274 284 288 288 287 288 287 288 288 285
352 349 342 223 174 93 356 10 20 23 26 11 347 357 349 229 232 240 213 156 136 129 139 118 55 164 141 127 122 113 109 109 111 115 120 124 125 124 126 127 129 136 141 143 142 141 143 143 140 145 148 148 152 160 164 159 155 163 175 184 192 201 208 216 222 230 237 243 260 276 279 276 276 278 281 287 299 307 305 302 301 300 298 296 294 290
349 349 343 303 309 328 314 312 326 352 3 352 345 356 2 224 214 219 183 160 146 149 166 154 160 169 152 138 131 123 120 119 114 112 115 122 128 128 126 125 124 126 131 135 136 137 139 140 140 138 133 133 138 143 147 145 147 155 163 175 186 192 201 218 233 241 248 258 272 280 282 282 282 288 295 306 316 316 311 309 305 305 307 305 301 297
337 350 352 343 19 326 304 316 325 337 353 356 351 354 4 75 157 191 169 165 166 167 168 171 165 160 154 147 140 132 129 126 119 115 115 119 125 128 129 127 126 127 132 135 136 135 132 133 135 131 124 123 123 122 122 121 124 134 148 166 174 187 215 234 242 248 254 265 275 281 289 298 295 295 299 301 303 303 304 304 301 299 300 297 295 292
327 339 350 348 336 291 277 309 325 332 349 355 354 353 1 68 86 118 167 175 189 172 162 169 167 161 157 154 147 141 138 132 127 123 119 120 122 125 128 130 131 133 134 135 135 129 122 122 126 121 114 111 109 111 111 107 108 113 117 126 133 142 184 212 227 243 248 253 265 278 290 298 295 294 293 290 292 296 300 300 297 296 294 289 287 288
345 326 332 330 321 314 300 307 322 330 342 345 351 356 354 49 65 107 181 293 246 184 171 169 169 165 159 157 153 149 148 143 138 133 129 127 127 128 133 134 134 132 130 131 129 124 117 116 118 112 106 105 104 105 105 102 104 106 106 110 116 125 134 164 201 211 231 251 269 280 284 287 288 289 291 291 291 293 296 298 297 297 296 292 290 289
10 338 332 327 316 313 304 302 314 324 334 335 340 347 337 287 302 218 232 313 269 218 253 176 171 169 162 159 157 156 155 154 148 140 137 137 134 133 133 131 129 124 122 123 121 120 120 119 118 112 106 103 100 100 101 99 99 97 97 104 110 126 145 208 229 235 253 263 271 277 280 283 285 286 289 290 290 291 292 293 292 292 290 287 286 284
7 346 336 330 321 318 311 305 303 310 327 331 333 338 322 264 273 244 253 287 258 244 254 176 168 167 165 161 159 158 157 157 150 140 137 138 133 130 126 124 126 122 119 123 120 120 121 121 119 116 111 107 102 100 99 98 100 96 103 155 189 210 223 243 251 255 261 266 270 274 276 278 279 280 282 283 285 285 284 284 285 285 283 283 283 283
346 352 344 333 323 314 309 305 295 316 338 333 336 342 360 69 317 258 256 262 249 227 181 170 165 163 165 163 161 160 158 156 151 142 139 137 131 129 128 129 133 133 133 135 132 130 127 124 124 123 121 119 112 111 127 222 244 246 255 253 245 240 241 247 251 255 258 261 265 266 268 270 273 274 276 278 279 278 277 279 279 279 281 285 288 290
319 348 343 330 318 306 301 292 267 287 316 311 316 337 7 51 43 2 283 244 240 213 177 175 172 167 166 166 164 162 159 158 153 147 144 143 139 137 135 137 141 141 142 143 140 137 132 130 132 132 135 149 212 276 281 288 288 286 285 281 279 274 265 262 260 260 260 260 262 263 265 268 271 273 273 274 275 276 278 280 282 284 288 293 298 299
294 319 327 319 307 302 301 284 265 282 306 302 294 337 21 29 29 15 5 233 238 234 203 189 180 173 170 168 167 164 160 156 149 141 139 144 149 150 145 148 152 151 152 153 149 147 145 147 153 151 273 293 301 300 302 303 296 290 286 281 279 274 269 267 264 262 262 262 264 264 265 267 270 272 275 276 279 283 287 290 292 295 299 302 303 303
286 296 307 304 295 307 308 290 281 290 299 306 306 302 8 22 27 15 342 238 237 239 222 201 184 177 174 171 168 164 156 150 143 138 137 140 150 159 159 164 169 172 174 176 176 179 183 194 221 261 278 287 293 291 292 283 268 264 263 264 266 267 269 272 270 269 271 272 276 279 281 284 285 286 290 293 296 299 300 301 302 304 306 308 309 311
284 284 284 278 277 297 308 306 316 311 285 314 323 290 249 267 52 19 317 235 233 218 206 199 191 185 178 170 169 165 156 152 152 152 151 151 156 164 172 179 184 188 191 194 195 198 204 214 233 251 260 267 273 272 272 269 269 274 275 276 279 281 286 290 292 294 296 298 302 303 304 305 305 305 305 307 310 311 310 312 313 316 321 323 325 328
278 269 257 257 269 282 275 180 192 281 302 316 314 285 263 265 246 258 291 247 208 190 194 205 203 194 184 173 171 169 164 163 165 162 160 165 169 172 176 180 183 187 194 199 203 210 222 236 250 262 270 279 284 285 284 281 285 292 294 295 297 297 299 302 303 305 308 310 311 311 311 314 316 319 324 332 342 349 350 349 345 343 342 339 336 333
270 256 246 248 259 265 251 236 260 285 300 307 308 295 278 273 264 260 276 255 196 188 206 226 210 197 192 185 179 175 174 176 177 172 169 173 177 180 182 180 177 182 192 201 213 226 238 252 264 273 282 288 289 290 290 288 290 294 295 297 299 297 298 300 302 306 311 316 322 325 332 344 357 7 13 15 11 8 3 357 352 347 343 338 334 330
259 252 246 246 250 254 264 280 291 300 305 309 314 308 283 268 266 259 266 263 218 204 220 235 214 204 204 198 189 183 183 187 188 184 180 177 176 180 187 190 192 195 197 201 214 228 238 250 262 270 276 281 284 286 289 291 295 298 299 301 302 302 301 302 308 319 340 21 47 54 51 45 32 17 7 356 349 348 346 345 342 338 334 329 325 321
275 262 251 248 250 254 258 261 242 241 286 315 324 311 281 262 264 266 277 288 252 221 224 230 217 213 219 218 207 198 196 198 195 189 182 174 178 185 188 190 194 198 199 200 210 224 236 249 262 270 275 279 282 286 289 294 298 300 302 306 311 315 319 341 26 47 52 55 50 36 21 9 356 350 346 341 338 336 335 333 329 325 321 318 316 314
288 279 262 249 252 254 250 251 255 260 277 293 299 297 277 258 256 255 270 325 313 239 229 230 224 219 223 228 222 215 214 216 208 195 180 170 186 191 183 182 190 194 198 204 215 231 247 260 270 276 278 279 282 286 290 293 295 299 308 326 360 32 51 55 52 45 33 24 17 9 1 354 349 345 342 338 334 331 328 326 323 321 320 319 319 319
291 285 274 257 254 253 245 250 264 270 275 281 279 278 271 256 244 230 235 295 322 286 238 232 230 226 223 224 227 228 227 224 217 205 189 182 197 194 182 188 194 196 203 212 224 240 255 265 271 275 280 286 291 295 298 302 311 360 41 59 65 60 49 36 24 14 6 2 359 356 352 346 342 339 335 332 329 326 325 324 322 322 322 322 323 322
296 290 280 268 263 257 247 252 264 270 275 277 272 270 270 256 237 238 260 284 297 292 258 240 233 228 224 222 224 227 222 213 207 203 194 190 197 192 185 191 196 200 215 228 239 251 260 267 273 282 293 302 308 317 345 47 70 70 62 53 43 28 16 6 358 353 350 347 343 341 338 336 333 331 328 327 326 325 325 324 323 322 322 322 321 320
300 288 280 276 272 263 253 251 259 270 278 281 274 268 263 251 248 260 274 285 287 284 274 255 238 229 224 221 221 221 216 206 196 190 189 189 188 183 182 188 196 211 233 247 257 263 267 275 286 301 316 332 13 61 72 71 64 55 43 28 16 10 2 354 348 344 341 337 334 331 330 329 328 327 326 325 324 323 322 321 320 319 318 317 316 316
292 278 264 259 265 272 263 247 250 267 283 292 287 275 264 259 262 270 276 284 290 287 278 266 250 235 227 225 223 214 204 195 185 183 184 179 169 168 177 189 201 221 241 254 266 272 279 293 311 328 350 56 87 86 76 65 51 37 25 14 7 1 354 346 342 338 335 332 329 327 327 327 326 325 324 323 321 320 317 316 314 312 311 310 310 310
280 272 270 268 265 267 267 265 271 277 280 287 286 280 276 274 273 278 284 286 286 284 279 272 257 238 222 215 210 197 188 193 196 189 182 172 160 159 174 192 210 229 245 260 275 286 298 315 339 14 72 89 82 67 52 40 28 18 9 1 354 347 342 338 335 332 329 328 327 326 325 325 324 322 321 319 318 316 313 311 310 308 307 307 306 307
261 270 280 280 275 275 273 273 279 282 282 287 288 284 284 284 280 282 285 282 279 279 275 260 246 232 212 199 197 192 190 198 193 179 168 160 152 155 174 198 218 231 247 265 279 291 306 335 37 74 79 69 55 43 32 20 9 2 355 349 343 339 335 332 328 324 321 320 320 320 320 320 319 318 317 315 313 311 309 308 307 306 305 305 304 304
268 278 285 279 264 266 272 275 282 290 293 296 294 289 288 286 281 282 283 278 275 265 233 216 221 216 201 194 197 191 166 160 160 155 149 144 142 154 178 201 221 234 248 265 278 302 36 78 84 79 69 57 46 35 20 4 352 345 338 333 330 328 326 323 318 315 313 312 313 314 314 314 313 312 310 308 306 305 304 303 302 302 302 301 301 301
270 277 287 283 261 255 269 280 291 303 305 300 296 300 309 304 296 304 334 175 187 178 169 170 180 184 181 174 167 153 141 140 142 142 138 136 142 158 174 188 205 215 208 131 109 105 104 98 87 75 62 47 31 14 358 344 336 332 327 323 321 319 316 313 311 310 311 311 311 311 312 311 310 308 306 305 303 302 301 301 300 300 300 300 299 300
268 271 272 272 268 255 260 284 306 314 295 282 325 91 88 90 105 121 127 136 151 160 156 141 131 132 133 127 128 136 138 136 136 135 134 137 143 148 151 151 140 128 118 114 111 108 103 91 75 57 37 15 358 347 338 330 324 320 315 312 310 308 307 306 306 307 308 308 308 308 308 308 307 306 305 304 303 302 302 301 301 301 300 300 300 301
258 246 235 255 277 247 219 246 289 300 143 114 104 100 95 92 97 110 116 112 107 107 113 117 119 123 125 122 123 129 130 125 126 129 127 126 128 129 130 127 122 120 118 115 111 103 90 73 51 25 3 348 336 326 315 309 306 305 306 307 308 309 310 311 312 312 311 311 310 309 307 306 305 304 304 303 302 301 299 297 297 297 296 296 296 298
243 214 217 255 272 265 254 266 247 171 126 110 106 104 100 96 95 97 98 97 96 95 94 98 109 119 121 118 115 115 118 120 120 118 118 121 123 121 121 119 117 116 112 104 94 81 62 36 9 347 330 318 312 308 306 308 311 315 318 320 320 321 321 320 319 319 318 316 315 312 310 309 308 307 305 303 301 299 296 293 290 289 289 289 290 292